TimeEST,TemperatureF,Dew PointF,Humidity,Sea Level PressureIn,VisibilityMPH,Wind Direction,Wind SpeedMPH,Gust SpeedMPH,PrecipitationIn,Events,Conditions,WindDirDegrees,DateUTC
12:15 AM,35.6,25.0,65,30.24,10.0,West,6.9,-,N/A,,Unknown,260,2013-01-15 05:15:00
12:35 AM,35.1,24.8,66,30.25,10.0,WNW,4.6,-,N/A,,Unknown,300,2013-01-15 05:35:00
12:55 AM,34.9,24.6,66,30.25,10.0,West,4.6,-,N/A,,Unknown,280,2013-01-15 05:55:00
1:15 AM,34.2,24.6,68,30.25,10.0,WNW,3.5,-,N/A,,Unknown,290,2013-01-15 06:15:00
1:55 AM,34.3,24.4,67,30.23,10.0,Calm,Calm,-,N/A,,Unknown,0,2013-01-15 06:55:00
2:35 AM,33.8,24.4,69,30.24,10.0,WNW,4.6,-,N/A,,Unknown,290,2013-01-15 07:35:00
2:55 AM,33.6,24.4,69,30.23,10.0,WNW,3.5,-,N/A,,Unknown,290,2013-01-15 07:55:00
3:15 AM,33.3,24.3,70,30.22,10.0,WNW,3.5,-,N/A,,Unknown,300,2013-01-15 08:15:00
3:35 AM,33.3,24.4,70,30.21,10.0,WNW,3.5,-,N/A,,Unknown,290,2013-01-15 08:35:00
3:55 AM,32.5,24.1,71,30.21,10.0,Calm,Calm,-,N/A,,Unknown,0,2013-01-15 08:55:00
4:15 AM,31.3,24.8,77,30.21,10.0,Calm,Calm,-,N/A,,Unknown,0,2013-01-15 09:15:00
4:35 AM,32.0,25.5,77,30.23,10.0,Calm,Calm,-,N/A,,Unknown,0,2013-01-15 09:35:00
4:55 AM,32.2,25.2,75,30.23,10.0,WNW,4.6,-,N/A,,Unknown,290,2013-01-15 09:55:00
5:15 AM,32.9,24.8,72,30.22,10.0,Calm,Calm,-,N/A,,Unknown,0,2013-01-15 10:15:00
5:35 AM,32.5,25.2,74,30.21,10.0,WNW,4.6,-,N/A,,Unknown,300,2013-01-15 10:35:00
5:55 AM,32.9,25.2,73,30.23,10.0,West,4.6,-,N/A,,Unknown,280,2013-01-15 10:55:00
6:15 AM,33.1,24.6,71,30.23,10.0,WNW,3.5,-,N/A,,Unknown,290,2013-01-15 11:15:00
6:35 AM,32.5,24.8,73,30.24,10.0,West,3.5,-,N/A,,Unknown,280,2013-01-15 11:35:00
6:55 AM,32.9,24.4,71,30.25,10.0,WNW,4.6,-,N/A,,Unknown,290,2013-01-15 11:55:00
7:15 AM,32.9,24.3,71,30.27,10.0,WNW,3.5,-,N/A,,Unknown,300,2013-01-15 12:15:00
7:35 AM,33.1,22.8,66,30.27,10.0,Calm,Calm,-,N/A,,Unknown,0,2013-01-15 12:35:00
7:55 AM,32.7,23.2,68,30.28,10.0,WNW,4.6,-,N/A,,Unknown,300,2013-01-15 12:55:00
8:15 AM,32.9,23.4,68,30.29,10.0,Calm,Calm,-,N/A,,Unknown,0,2013-01-15 13:15:00
8:35 AM,33.3,23.2,67,30.29,10.0,NW,4.6,-,N/A,,Unknown,310,2013-01-15 13:35:00
8:55 AM,33.6,22.3,63,30.29,10.0,NNW,4.6,-,N/A,,Unknown,340,2013-01-15 13:55:00
9:15 AM,34.0,21.9,61,30.30,10.0,WNW,4.6,-,N/A,,Unknown,300,2013-01-15 14:15:00
9:35 AM,34.7,20.8,57,30.29,10.0,West,4.6,-,N/A,,Unknown,280,2013-01-15 14:35:00
9:55 AM,34.9,19.9,55,30.29,10.0,NW,11.5,-,N/A,,Unknown,310,2013-01-15 14:55:00
10:15 AM,34.9,19.8,54,30.30,10.0,WNW,8.1,16.1,N/A,,Unknown,300,2013-01-15 15:15:00
10:35 AM,34.7,20.1,55,30.30,10.0,NW,9.2,-,N/A,,Unknown,310,2013-01-15 15:35:00
10:55 AM,34.7,19.4,54,30.29,10.0,NW,6.9,-,N/A,,Unknown,320,2013-01-15 15:55:00
11:15 AM,35.2,19.8,53,30.28,10.0,NW,4.6,-,N/A,,Unknown,320,2013-01-15 16:15:00
11:35 AM,35.4,19.2,52,30.27,10.0,West,6.9,-,N/A,,Unknown,280,2013-01-15 16:35:00
11:55 AM,34.9,19.2,53,30.26,10.0,WNW,9.2,-,N/A,,Unknown,300,2013-01-15 16:55:00
12:15 PM,35.1,19.4,53,30.26,10.0,NW,5.8,-,N/A,,Unknown,310,2013-01-15 17:15:00
12:35 PM,34.9,19.4,53,30.25,10.0,West,5.8,-,N/A,,Unknown,260,2013-01-15 17:35:00
12:55 PM,34.9,19.6,54,30.25,10.0,WNW,8.1,-,N/A,,Unknown,290,2013-01-15 17:55:00
1:15 PM,34.7,19.9,55,30.25,10.0,NW,4.6,-,N/A,,Unknown,310,2013-01-15 18:15:00
1:35 PM,34.7,19.6,54,30.25,10.0,WNW,5.8,-,N/A,,Unknown,290,2013-01-15 18:35:00
2:15 PM,35.1,19.6,53,30.25,10.0,NW,6.9,-,N/A,,Unknown,320,2013-01-15 19:15:00
2:35 PM,34.9,20.3,55,30.25,10.0,NW,5.8,-,N/A,,Unknown,310,2013-01-15 19:35:00
2:55 PM,34.9,19.9,55,30.25,10.0,NW,4.6,-,N/A,,Unknown,310,2013-01-15 19:55:00
3:15 PM,34.9,20.1,55,30.24,10.0,Calm,Calm,-,N/A,,Unknown,0,2013-01-15 20:15:00
3:35 PM,34.7,19.6,54,30.23,10.0,NW,4.6,-,N/A,,Unknown,310,2013-01-15 20:35:00
4:15 PM,34.5,19.8,55,30.24,10.0,NW,4.6,-,N/A,,Unknown,320,2013-01-15 21:15:00
4:35 PM,34.2,19.4,55,30.25,10.0,NW,3.5,-,N/A,,Unknown,310,2013-01-15 21:35:00
4:55 PM,34.0,19.8,56,30.26,10.0,NW,3.5,-,N/A,,Unknown,320,2013-01-15 21:55:00
5:15 PM,33.4,20.5,59,30.25,10.0,Calm,Calm,-,N/A,,Unknown,0,2013-01-15 22:15:00
5:35 PM,33.1,19.9,59,30.25,10.0,Calm,Calm,-,N/A,,Unknown,0,2013-01-15 22:35:00
6:15 PM,30.6,23.2,74,30.26,10.0,Calm,Calm,-,N/A,,Unknown,0,2013-01-15 23:15:00
6:35 PM,29.3,20.8,71,30.26,10.0,Calm,Calm,-,N/A,,Unknown,0,2013-01-15 23:35:00
6:55 PM,28.9,23.9,81,30.26,10.0,Calm,Calm,-,N/A,,Unknown,0,2013-01-15 23:55:00
7:15 PM,28.6,22.5,78,30.26,10.0,Calm,Calm,-,N/A,,Unknown,0,2013-01-16 00:15:00
7:35 PM,28.2,23.4,82,30.26,10.0,Calm,Calm,-,N/A,,Unknown,0,2013-01-16 00:35:00
7:55 PM,28.4,23.5,82,30.24,10.0,Calm,Calm,-,N/A,,Unknown,0,2013-01-16 00:55:00
8:15 PM,28.4,24.1,84,30.24,10.0,Calm,Calm,-,N/A,,Unknown,0,2013-01-16 01:15:00
8:35 PM,28.4,23.9,83,30.25,10.0,Calm,Calm,-,N/A,,Unknown,0,2013-01-16 01:35:00
8:55 PM,28.2,23.7,83,30.24,10.0,Calm,Calm,-,N/A,,Unknown,0,2013-01-16 01:55:00
9:15 PM,28.4,24.1,84,30.24,10.0,Calm,Calm,-,N/A,,Unknown,0,2013-01-16 02:15:00
9:35 PM,28.4,23.9,83,30.23,10.0,Calm,Calm,-,N/A,,Unknown,0,2013-01-16 02:35:00
9:55 PM,28.4,24.4,85,30.23,10.0,Calm,Calm,-,N/A,,Unknown,0,2013-01-16 02:55:00
10:15 PM,28.4,24.4,85,30.23,10.0,Calm,Calm,-,N/A,,Unknown,0,2013-01-16 03:15:00
10:35 PM,28.4,24.3,84,30.23,10.0,Calm,Calm,-,N/A,,Unknown,0,2013-01-16 03:35:00
10:55 PM,28.4,24.8,86,30.22,10.0,Calm,Calm,-,N/A,,Unknown,0,2013-01-16 03:55:00
11:15 PM,28.4,24.6,86,30.23,10.0,Calm,Calm,-,N/A,,Unknown,0,2013-01-16 04:15:00
11:35 PM,28.4,24.8,86,30.23,10.0,Calm,Calm,-,N/A,,Unknown,0,2013-01-16 04:35:00
11:55 PM,28.4,25.2,88,30.23,10.0,Calm,Calm,-,N/A,,Unknown,0,2013-01-16 04:55:00